Location: Newark
(25.0000°N, 73.5000°E)
Time: 19:32:04
(UTC+00:00)

Altair - Pass Details

Date: 09 March 2021
Orbit: 1501 x 1683 km, 47.2° (Epoch: 10 April)

Event Time Altitude Azimuth Distance (km) Brightness Sun altitude
Rises 10:17:37 0° 217° (SW) 4,659 10.8 37.2°
Reaches altitude 10° 10:20:41 10° 215° (SW) 3,664 10.5 36.5°
Maximum altitude 10:29:48 71° 133° (SE) 1,570 8.1 34.7°
Drops below altitude 10° 10:38:54 10° 51° (NE) 3,662 9.1 32.8°
Sets 10:41:57 0° 50° (NE) 4,657 9.5 32.2°
